Location: Alafon
(8.4500°N, 4.2333°E)
Time: 16:36:48
(UTC+00:00)

Transit 2A - Pass Details

Date: 03 August 2021
Orbit: 595 x 964 km, 66.7° (Epoch: 18 September)

Event Time Altitude Azimuth Distance (km) Brightness Sun altitude
Rises 03:54:16 0° 193° (SSW) 2,884 - -24.2°
Reaches altitude 10° 03:56:34 10° 190° (S) 1,951 - -23.7°
Exits shadow 03:59:36 41° 168° (SSE) 868 6.1 -23.0°
Maximum altitude 04:00:51 60° 110° (ESE) 683 5.9 -22.7°
Drops below altitude 10° 04:05:03 10° 30° (NNE) 1,924 8.8 -21.7°
Sets 04:07:19 0° 26° (NNE) 2,841 9.7 -21.2°
